When you browse on this site, cookies collect data to enhance your experience and personalize the content and advertising you see.
Visit our Privacy Policy to learn more. By continuing to use the site, you agree to this use of cookies and data.
  • In Portugal
  • List of Countries
  • For 7 days
  • Water Temperature
  • Weather Map
  • Weather Widgets
  • user-avatar
    Login

    Hourly Weather Zaranj

    Today, 27 February, Thursday

    Time Temperature Precipitation Wind Pressure Humidity
    00:00 +22°C° 0 mm 8 mps 714 mmHg 40%
    01:00 +19°C° 0 mm 9 mps 714 mmHg 44%
    02:00 +18°C° 0 mm 8 mps 714 mmHg 49%
    03:00 +16°C° 0 mm 8 mps 714 mmHg 54%
    04:00 +15°C° 0 mm 6 mps 714 mmHg 62%
    05:00 +15°C° 0 mm 7 mps 715 mmHg 62%
    06:00 +14°C° 0 mm 7 mps 715 mmHg 63%
    07:00 +14°C° 0 mm 7 mps 716 mmHg 63%
    08:00 +13°C° 0 mm 9 mps 716 mmHg 60%
    09:00 +13°C° 0 mm 10 mps 717 mmHg 57%
    10:00 +13°C° 0 mm 12 mps 717 mmHg 51%
    11:00 +14°C° 0 mm 12 mps 717 mmHg 47%
    12:00 +15°C° 0 mm 12 mps 718 mmHg 43%
    13:00 +15°C° 0 mm 12 mps 718 mmHg 39%
    14:00 +15°C° 0 mm 12 mps 718 mmHg 39%
    15:00 +15°C° 0 mm 12 mps 718 mmHg 39%
    16:00 +16°C° 0 mm 11 mps 718 mmHg 38%
    17:00 +13°C° 0 mm 12 mps 718 mmHg 41%
    18:00 +12°C° 0 mm 12 mps 719 mmHg 45%
    19:00 +9°C° 0 mm 12 mps 719 mmHg 48%
    20:00 +9°C° 0 mm 12 mps 719 mmHg 49%
    21:00 +8°C° 0 mm 12 mps 720 mmHg 51%
    22:00 +8°C° 0 mm 11 mps 720 mmHg 52%
    23:00 +7°C° 0 mm 11 mps 720 mmHg 53%

    Tomorrow, 28 February, Friday

    Time Temperature Precipitation Wind Pressure Humidity
    00:00 +7°C° 0 mm 11 mps 720 mmHg 54%
    01:00 +7°C° 0 mm 10 mps 720 mmHg 55%
    02:00 +7°C° 0 mm 10 mps 720 mmHg 56%
    03:00 +6°C° 0 mm 11 mps 720 mmHg 56%
    04:00 +6°C° 0 mm 11 mps 719 mmHg 56%
    05:00 +6°C° 0 mm 10 mps 720 mmHg 56%
    06:00 +6°C° 0 mm 10 mps 721 mmHg 56%
    07:00 +6°C° 0 mm 10 mps 721 mmHg 55%
    08:00 +8°C° 0 mm 9 mps 721 mmHg 51%
    09:00 +10°C° 0 mm 9 mps 721 mmHg 46%
    10:00 +11°C° 0 mm 9 mps 721 mmHg 41%
    11:00 +13°C° 0 mm 8 mps 721 mmHg 39%
    12:00 +15°C° 0 mm 8 mps 720 mmHg 36%
    13:00 +16°C° 0 mm 8 mps 720 mmHg 33%
    14:00 +16°C° 0 mm 7 mps 719 mmHg 32%
    15:00 +17°C° 0 mm 7 mps 719 mmHg 31%
    16:00 +17°C° 0 mm 6 mps 718 mmHg 31%
    17:00 +16°C° 0 mm 5 mps 718 mmHg 33%
    18:00 +15°C° 0 mm 4 mps 719 mmHg 35%
    19:00 +16°C° 0 mm 2 mps 719 mmHg 38%
    20:00 +15°C° 0 mm 2 mps 719 mmHg 39%
    21:00 +14°C° 0 mm 1 mps 719 mmHg 41%
    22:00 +14°C° 0 mm 1 mps 719 mmHg 43%
    23:00 +13°C° 0 mm 1 mps 719 mmHg 44%

    Day after tomorrow, 29 February, Saturday

    Time Temperature Precipitation Wind Pressure Humidity
    00:00 +13°C° 0 mm 1 mps 719 mmHg 45%
    01:00 +13°C° 0 mm 1 mps 718 mmHg 46%
    02:00 +12°C° 0 mm 1 mps 718 mmHg 47%
    03:00 +12°C° 0 mm 1 mps 718 mmHg 49%
    04:00 +11°C° 0 mm 1 mps 717 mmHg 51%
    05:00 +11°C° 0 mm 1 mps 717 mmHg 50%
    06:00 +12°C° 0 mm 1 mps 718 mmHg 50%
    07:00 +12°C° 0 mm 1 mps 718 mmHg 50%
    08:00 +13°C° 0 mm 1 mps 718 mmHg 45%
    09:00 +15°C° 0 mm 1 mps 719 mmHg 39%
    10:00 +18°C° 0 mm 1 mps 719 mmHg 34%
    11:00 +19°C° 0 mm 1 mps 719 mmHg 31%
    12:00 +20°C° 0 mm 1 mps 718 mmHg 29%
    13:00 +21°C° 0 mm 1 mps 718 mmHg 26%
    14:00 +22°C° 0 mm 1 mps 717 mmHg 25%
    15:00 +22°C° 0 mm 1 mps 717 mmHg 24%
    16:00 +23°C° 0 mm 2 mps 716 mmHg 23%
    17:00 +21°C° 0 mm 2 mps 717 mmHg 25%
    18:00 +20°C° 0 mm 2 mps 717 mmHg 28%
    19:00 +19°C° 0 mm 2 mps 717 mmHg 30%
    20:00 +19°C° 0 mm 2 mps 717 mmHg 32%
    21:00 +18°C° 0 mm 2 mps 718 mmHg 33%
    22:00 +18°C° 0 mm 1 mps 718 mmHg 35%
    23:00 +18°C° 0 mm 1 mps 718 mmHg 36%

    1 March, Sunday

    Time Temperature Precipitation Wind Pressure Humidity
    00:00 +16°C° 0 mm 1 mps 717 mmHg 36%
    01:00 +16°C° 0 mm 1 mps 717 mmHg 37%
    02:00 +16°C° 0 mm 2 mps 717 mmHg 38%
    03:00 +15°C° 0 mm 2 mps 717 mmHg 39%
    04:00 +15°C° 0 mm 2 mps 716 mmHg 40%
    05:00 +15°C° 0 mm 2 mps 717 mmHg 40%
    06:00 +15°C° 0 mm 2 mps 717 mmHg 40%
    07:00 +15°C° 0 mm 1 mps 717 mmHg 40%
    08:00 +18°C° 0 mm 1 mps 718 mmHg 35%
    09:00 +19°C° 0 mm 2 mps 718 mmHg 31%
    10:00 +21°C° 0 mm 2 mps 719 mmHg 26%
    11:00 +23°C° 0 mm 2 mps 718 mmHg 23%
    12:00 +24°C° 0 mm 2 mps 718 mmHg 21%
    13:00 +26°C° 0 mm 2 mps 717 mmHg 18%
    14:00 +26°C° 0 mm 2 mps 717 mmHg 17%
    15:00 +27°C° 0 mm 2 mps 716 mmHg 15%
    16:00 +27°C° 0 mm 2 mps 716 mmHg 14%
    17:00 +26°C° 0 mm 2 mps 716 mmHg 17%
    18:00 +24°C° 0 mm 2 mps 716 mmHg 19%
    19:00 +22°C° 0 mm 3 mps 717 mmHg 22%
    20:00 +21°C° 0 mm 2 mps 717 mmHg 22%
    21:00 +21°C° 0 mm 2 mps 717 mmHg 23%
    22:00 +20°C° 0 mm 2 mps 717 mmHg 23%
    23:00 +20°C° 0 mm 2 mps 717 mmHg 24%

    2 March, Monday

    Time Temperature Precipitation Wind Pressure Humidity
    00:00 +19°C° 0 mm 2 mps 716 mmHg 24%
    01:00 +18°C° 0 mm 2 mps 716 mmHg 25%
    02:00 +18°C° 0 mm 2 mps 716 mmHg 26%
    03:00 +17°C° 0 mm 2 mps 715 mmHg 27%
    04:00 +16°C° 0 mm 2 mps 715 mmHg 27%
    05:00 +16°C° 0 mm 2 mps 715 mmHg 28%
    06:00 +16°C° 0 mm 2 mps 716 mmHg 28%
    07:00 +16°C° 0 mm 2 mps 716 mmHg 29%
    08:00 +18°C° 0 mm 2 mps 716 mmHg 26%
    09:00 +21°C° 0 mm 1 mps 717 mmHg 22%
    10:00 +24°C° 0 mm 1 mps 717 mmHg 19%
    11:00 +25°C° 0 mm 2 mps 716 mmHg 17%
    12:00 +27°C° 0 mm 2 mps 716 mmHg 15%
    13:00 +28°C° 0 mm 2 mps 715 mmHg 13%
    14:00 +29°C° 0 mm 3 mps 715 mmHg 12%
    15:00 +29°C° 0 mm 3 mps 714 mmHg 11%
    16:00 +30°C° 0 mm 4 mps 714 mmHg 10%
    17:00 +29°C° 0 mm 4 mps 714 mmHg 12%
    18:00 +27°C° 0 mm 3 mps 714 mmHg 14%
    19:00 +26°C° 0 mm 3 mps 714 mmHg 16%
    20:00 +25°C° 0 mm 3 mps 714 mmHg 17%
    21:00 +23°C° 0 mm 4 mps 714 mmHg 18%
    22:00 +23°C° 0 mm 4 mps 714 mmHg 18%
    23:00 +22°C° 0 mm 3 mps 713 mmHg 20%

    3 March, Tuesday

    Time Temperature Precipitation Wind Pressure Humidity
    00:00 +21°C° 0 mm 2 mps 713 mmHg 22%
    01:00 +20°C° 0 mm 2 mps 713 mmHg 24%
    02:00 +20°C° 0 mm 2 mps 713 mmHg 25%
    03:00 +19°C° 0 mm 2 mps 712 mmHg 26%
    04:00 +19°C° 0 mm 2 mps 712 mmHg 27%
    05:00 +18°C° 0 mm 3 mps 713 mmHg 31%
    06:00 +17°C° 0 mm 5 mps 713 mmHg 35%
    07:00 +16°C° 0 mm 6 mps 714 mmHg 39%
    08:00 +17°C° 0 mm 8 mps 715 mmHg 39%
    09:00 +18°C° 0 mm 10 mps 715 mmHg 38%
    10:00 +19°C° 0 mm 12 mps 716 mmHg 38%
    11:00 +21°C° 0 mm 11 mps 716 mmHg 35%
    12:00 +21°C° 0 mm 11 mps 716 mmHg 32%
    13:00 +22°C° 0 mm 11 mps 716 mmHg 28%
    14:00 +22°C° 0 mm 10 mps 715 mmHg 28%
    15:00 +23°C° 0 mm 9 mps 715 mmHg 28%
    16:00 +23°C° 0 mm 8 mps 715 mmHg 27%
    17:00 +21°C° 0 mm 8 mps 715 mmHg 32%
    18:00 +20°C° 0 mm 8 mps 716 mmHg 36%
    19:00 +18°C° 0 mm 9 mps 716 mmHg 40%
    20:00 +17°C° 0 mm 9 mps 717 mmHg 43%
    21:00 +16°C° 0 mm 10 mps 717 mmHg 45%
    22:00 +14°C° 0 mm 11 mps 718 mmHg 48%
    23:00 +13°C° 0 mm 10 mps 718 mmHg 50%
    Show more